SV1DOD Weather Reports


time (UTC)temp
C
wind
direction
speed
KPH
gust
KPH
rain 1hr
cm
rain 24hr
cm
rain mn
cm
humidity
%
barometer
mb
20260508065518 17 80 3.2 8.0 0.00 0.00 0.00 76 1017.0
20260508064518 16 109 1.6 4.8 0.00 0.00 0.00 76 1017.1
20260508063517 16 149 3.2 11.3 0.00 0.00 0.00 76 1017.2
20260508062516 16 161 3.2 14.5 0.00 0.00 0.00 76 1017.1
20260508061516 16 149 3.2 8.0 0.00 0.00 0.00 76 1016.9
20260508060518 16 180 3.2 12.9 0.00 0.00 0.00 76 1017.3
20260508055516 16 179 3.2 11.3 0.00 0.00 0.00 76 1017.6
20260508054516 16 217 3.2 9.7 0.00 0.00 0.00 76 1018.0
20260508053516 16 174 3.2 9.7 0.00 0.00 0.00 76 1018.1
20260508052558 16 266 6.4 11.3 0.00 0.00 0.00 76 1018.2
20260508051518 16 311 1.6 6.4 0.00 0.00 0.00 76 1017.5
20260508050518 16 238 3.2 6.4 0.00 0.00 0.00 76 1017.6
20260508045516 15 231 4.8 9.7 0.00 0.00 0.00 76 1017.3
20260508044538 15 243 6.4 11.3 0.00 0.00 0.00 76 1016.9
20260508043516 15 200 8.0 14.5 0.00 0.00 0.00 76 1016.4
20260508042519 15 194 4.8 8.0 0.00 0.00 0.00 76 1016.0
20260508041518 15 165 1.6 4.8 0.00 0.00 0.00 75 1015.7
20260508040516 15 185 3.2 6.4 0.00 0.00 0.00 75 1015.7
20260508035516 15 186 3.2 8.0 0.00 0.00 0.00 76 1015.7
20260508034517 15 204 3.2 6.4 0.00 0.00 0.00 75 1015.6
20260508033538 15 204 3.2 6.4 0.00 0.00 0.00 75 1015.5
20260508032516 15 182 1.6 4.8 0.00 0.00 0.00 75 1015.4
20260508031516 15 181 0.0 4.8 0.00 0.00 0.00 75 1015.4
20260508030516 15 181 1.6 4.8 0.00 0.00 0.00 76 1015.3
20260508025538 15 181 0.0 1.6 0.00 0.00 0.00 76 1015.3
20260508024516 15 181 1.6 3.2 0.00 0.00 0.00 75 1015.4
20260508023516 15 182 3.2 6.4 0.00 0.00 0.00 76 1015.4
20260508022537 15 183 3.2 6.4 0.00 0.00 0.00 76 1015.4
20260508021518 15 181 1.6 6.4 0.00 0.00 0.00 76 1015.4
20260508020518 15 193 3.2 6.4 0.00 0.00 0.00 76 1015.6
20260508015516 16 180 1.6 4.8 0.00 0.00 0.00 76 1015.7
20260508014518 16 176 1.6 4.8 0.00 0.00 0.00 76 1015.7
20260508013537 16 175 1.6 4.8 0.00 0.00 0.00 76 1015.6
20260508012516 16 174 0.0 3.2 0.00 0.00 0.00 76 1015.7
20260508011516 16 178 0.0 3.2 0.00 0.00 0.00 76 1015.5
20260508010516 16 171 1.6 3.2 0.00 0.00 0.00 76 1015.6
20260508005516 16 0.0 1.6 0.00 0.00 0.00 76 1015.6
20260508004516 16 176 0.0 3.2 0.00 0.00 0.00 76 1015.8
20260508003538 16 176 1.6 4.8 0.00 0.00 0.00 76 1016.0
20260508002516 16 176 0.0 3.2 0.00 0.00 0.00 76 1016.2
20260508001518 16 177 0.0 1.6 0.00 0.00 0.00 76 1016.2
20260508000516 16 0.0 0.0 0.00 0.00 0.00 76 1016.5
20260507235516 16 0.0 0.0 0.00 0.00 0.00 76 1016.6
20260507234516 16 178 0.0 3.2 0.00 0.00 0.00 76 1016.7
20260507233516 16 178 1.6 4.8 0.00 0.00 0.00 76 1016.8
20260507232518 16 176 0.0 3.2 0.00 0.00 0.00 76 1016.7
20260507231537 16 176 0.0 1.6 0.00 0.00 0.00 76 1016.8
20260507230556 16 176 1.6 3.2 0.00 0.00 0.00 76 1017.0
20260507225516 16 176 0.0 1.6 0.00 0.00 0.00 76 1016.8
20260507224516 16 176 0.0 4.8 0.00 0.00 0.00 76 1016.9
20260507223517 16 182 1.6 6.4 0.00 0.00 0.00 76 1017.1
20260507222518 16 203 1.6 6.4 0.00 0.00 0.00 76 1017.0
20260507221536 16 213 0.0 1.6 0.00 0.00 0.00 76 1017.0
20260507220536 16 214 0.0 1.6 0.00 0.00 0.00 76 1017.0
20260507215517 16 214 0.0 1.6 0.00 0.00 0.00 76 1017.1
20260507214517 16 216 0.0 3.2 0.00 0.00 0.00 76 1017.1
20260507213516 16 213 0.0 4.8 0.00 0.00 0.00 76 1017.2
20260507212516 16 219 0.0 4.8 0.00 0.00 0.00 76 1017.2
20260507211516 17 229 3.2 6.4 0.00 0.00 0.00 76 1017.4
20260507210517 17 211 1.6 6.4 0.00 0.00 0.00 76 1017.4
20260507205516 17 208 3.2 8.0 0.00 0.00 0.00 76 1017.6
20260507204535 17 223 4.8 8.0 0.00 0.00 0.00 76 1017.7
20260507203515 17 268 4.8 6.4 0.00 0.00 0.00 76 1017.5
20260507202516 17 354 4.8 8.0 0.00 0.00 0.00 76 1017.5
20260507201515 17 0 4.8 12.9 0.00 0.00 0.00 76 1017.6
20260507200515 17 359 4.8 8.0 0.00 0.00 0.00 76 1017.5
20260507195515 17 359 4.8 8.0 0.00 0.00 0.00 75 1017.3
20260507194515 18 360 3.2 6.4 0.00 0.00 0.00 74 1017.3
20260507193515 18 358 1.6 4.8 0.00 0.00 0.00 73 1017.3
20260507192515 18 0 0.0 1.6 0.00 0.00 0.00 73 1017.3
20260507191535 18 0 0.0 4.8 0.00 0.00 0.00 72 1017.2
20260507190537 18 356 1.6 6.4 0.00 0.00 0.00 72 1017.1
20260507185517 18 10 1.6 6.4 0.00 0.00 0.00 72 1016.9
20260507184515 18 0 1.6 9.7 0.00 0.00 0.00 72 1016.7
20260507183517 18 0 0.0 4.8 0.00 0.00 0.00 71 1016.5
20260507182516 18 0 0.0 1.6 0.00 0.00 0.00 71 1016.4
20260507181515 18 360 1.6 3.2 0.00 0.00 0.00 71 1016.5
20260507180515 19 354 1.6 4.8 0.00 0.00 0.00 70 1016.4
20260507175516 19 0 0.0 1.6 0.00 0.00 0.00 70 1016.3
20260507174515 19 6 1.6 6.4 0.00 0.00 0.00 69 1016.5
20260507173515 20 2 1.6 4.8 0.00 0.00 0.00 69 1016.4
20260507172515 20 0 3.2 9.7 0.00 0.00 0.00 68 1016.5
20260507171516 20 0 1.6 6.4 0.00 0.00 0.00 69 1016.5
20260507170538 20 0 3.2 6.4 0.00 0.00 0.00 69 1016.6
20260507165515 20 0 3.2 9.7 0.00 0.00 0.00 68 1016.5
20260507164517 20 0 3.2 8.0 0.00 0.00 0.00 68 1016.5
20260507163515 21 0 3.2 8.0 0.00 0.00 0.00 67 1016.4
20260507162536 21 0 4.8 12.9 0.00 0.00 0.00 66 1016.3
20260507161516 21 0 4.8 16.1 0.00 0.00 0.00 66 1016.3
20260507160537 21 0 8.0 16.1 0.00 0.00 0.00 66 1016.2
20260507155515 21 0 4.8 14.5 0.00 0.00 0.00 65 1016.1
20260507154515 22 0 11.3 19.3 0.00 0.00 0.00 63 1016.1
20260507153515 22 31 6.4 25.7 0.00 0.00 0.00 61 1016.3
20260507152515 22 42 16.1 25.7 0.00 0.00 0.00 60 1016.0
20260507151518 22 2 16.1 30.6 0.00 0.00 0.00 58 1016.0
20260507150518 23 30 4.8 22.5 0.00 0.00 0.00 58 1016.2
20260507145519 23 16 6.4 16.1 0.00 0.00 0.00 57 1016.0
20260507144515 23 360 6.4 14.5 0.00 0.00 0.00 55 1016.2
20260507143515 23 17 6.4 16.1 0.00 0.00 0.00 53 1016.2
20260507142515 23 15 4.8 14.5 0.00 0.00 0.00 53 1016.3
20260507141516 24 9 4.8 14.5 0.00 0.00 0.00 52 1016.4
20260507140516 24 60 6.4 14.5 0.00 0.00 0.00 50 1016.1
20260507135518 24 19 4.8 12.9 0.00 0.00 0.00 49 1016.3
20260507134517 25 17 6.4 16.1 0.00 0.00 0.00 48 1016.3
20260507133516 25 14 4.8 12.9 0.00 0.00 0.00 46 1016.3
20260507132515 25 7 4.8 9.7 0.00 0.00 0.00 45 1016.1
20260507131516 25 37 6.4 12.9 0.00 0.00 0.00 45 1016.3
20260507130515 25 42 4.8 12.9 0.00 0.00 0.00 45 1016.3
20260507125518 24 4 3.2 9.7 0.00 0.00 0.00 47 1016.5
20260507124516 23 15 4.8 12.9 0.00 0.00 0.00 50 1016.7
20260507123516 23 359 3.2 6.4 0.00 0.00 0.00 52 1016.8
20260507122517 23 18 3.2 8.0 0.00 0.00 0.00 50 1016.8
20260507121515 23 2 3.2 9.7 0.00 0.00 0.00 46 1016.9
20260507120515 23 22 4.8 9.7 0.00 0.00 0.00 45 1017.0
20260507115517 23 10 3.2 14.5 0.00 0.00 0.00 44 1017.0
20260507114538 23 17 4.8 12.9 0.00 0.00 0.00 45 1017.0
20260507113516 23 24 4.8 11.3 0.00 0.00 0.00 46 1017.1
20260507112516 23 38 1.6 8.0 0.00 0.00 0.00 47 1017.2
20260507111517 22 38 4.8 8.0 0.00 0.00 0.00 44 1017.4
20260507110515 22 357 3.2 6.4 0.00 0.00 0.00 48 1017.5
20260507105518 23 7 1.6 6.4 0.00 0.00 0.00 48 1017.5
20260507104518 23 26 6.4 9.7 0.00 0.00 0.00 45 1017.4
20260507103518 23 16 3.2 8.0 0.00 0.00 0.00 47 1017.2
20260507102537 22 1 4.8 14.5 0.00 0.00 0.00 50 1017.1
20260507101517 22 10 4.8 12.9 0.00 0.00 0.00 55 1017.0
20260507100515 22 344 3.2 8.0 0.00 0.00 0.00 58 1017.2
20260507095516 22 355 1.6 4.8 0.00 0.00 0.00 58 1017.2
20260507094515 21 0 1.6 4.8 0.00 0.00 0.00 63 1017.2
20260507093515 21 27 1.6 6.4 0.00 0.00 0.00 64 1017.4
20260507092517 21 13 1.6 6.4 0.00 0.00 0.00 64 1017.4
20260507091518 21 11 3.2 6.4 0.00 0.00 0.00 63 1017.3
20260507090538 21 10 3.2 9.7 0.00 0.00 0.00 63 1017.2
20260507085515 21 311 1.6 8.0 0.00 0.00 0.00 63 1017.0
20260507084515 21 347 3.2 8.0 0.00 0.00 0.00 62 1016.9
20260507083518 21 352 3.2 8.0 0.00 0.00 0.00 63 1017.0
20260507082517 21 39 3.2 8.0 0.00 0.00 0.00 63 1016.9
20260507081517 21 336 1.6 4.8 0.00 0.00 0.00 64 1017.0
20260507080517 20 350 1.6 6.4 0.00 0.00 0.00 64 1016.9
20260507075537 20 334 3.2 8.0 0.00 0.00 0.00 65 1017.0
20260507074518 20 360 3.2 8.0 0.00 0.00 0.00 66 1016.9
20260507073516 19 318 3.2 8.0 0.00 0.00 0.00 66 1016.7
20260507072538 19 304 1.6 3.2 0.00 0.00 0.00 66 1016.6
20260507071515 18 337 1.6 4.8 0.00 0.00 0.00 68 1016.8
20260507070516 18 306 3.2 9.7 0.00 0.00 0.00 68 1016.9